SCP
0 0 0 0 0 0 0 0 0 0 0 0 0 0 0 0 0 0 0 0 0 0 0 0 0 0 0 0 0 0 0 0 0 0 0 0 0 0 0 0 0 0 0 0
0 0 0 0 0 0 0 0 0 0 0 0 0 0 0 0 0 0 0 0 0 0 0 0 0 0 0 0 0 0 0 0 0 0 0 0 0 0 0 0 0 0 0 0
0 0 0 0 0 0 0 0 0 0 0 0 0 0 0 0 0 0 0 0 0 0 0 0 0 0 0 0 0 0 0 0 0 0 0 0 0 0 0 0 0 0 0 0
0 0 0 0 0 0 0 0 0 0 0 0 0 0 0 0 0 0 0 0 0 0 0 0 0 0 0 0 0 0 0 0 0 0 0 0 0 0 0 0 0 0 0 0
0 0 0 0 0 0 0 0 0 0 0 0 0 0 0 0 0 0 0 0 0 0 0 0 0 0 0 0 0 0 0 0 0 0 0 0 0 0 0 0 0 0 0 0
0 0 0 0 0 0 0 0 0 0 0 0 0 0 0 0 0 0 0 0 0 0 0 0 0 0 0 0 0 0 0 0 0 0 0 0 0 0 0 0 0 0 0 0
0 0 0 0 0 0 0 0 0 0 0 0 0 0 0 0 0 0 0 0 0 0 0 0 0 0 0 0 0 0 0 0 0 0 0 0 0 0 0 0 0 0 0 0
0 0 0 0 0 0 0 0 0 0 0 0 0 0 0 0 0 0 0 0 0 0 0 0 0 0 0 0 0 0 0 0 0 0 0 0 0 0 0 0 0 0 0 0
0 0 0 0 0 0 0 0 0 0 0 0 0 0 0 0 0 0 0 0 0 0 0 0 0 0 0 0 0 0 0 0 0 0 0 0 0 0 0 0 0 0 0 0
0 0 0 0 0 0 0 0 0 0 0 0 0 0 0 0 0 0 0 0 0 0 0 0 0 0 0 0 0 0 0 0 0 0 0 0 0 0 0 0 0 0 0 0
0 0 0 0 0 0 0 0 0 0 0 0 0 0 0 0 0 0 0 0 0 0 0 0 0 0 0 0 0 0 0 0 0 0 0 0 0 0 0 0 0 0 0 0
0 0 0 0 0 0 0 0 0 0 0 0 0 0 0 0 0 0 0 0 0 0 0 0 0 0 0 0 0 0 0 0 0 0 0 0 0 0 0 0 0 0 0 0
0 0 0 0 0 0 0 0 0 0 0 0 0 0 0 0 0 0 0 0 0 0 0 0 0 0 0 0 0 0 0 0 0 0 0 0 0 0 0 0 0 0 0 0
0 0 0 0 0 0 0 0 0 0 0 0 0 0 0 0 0 0 0 0 0 0 0 0 0 0 0 0 0 0 0 0 0 0 0 0 0 0 0 0 0 0 0 0
0 0 0 0 0 0 0 0 0 0 0 0 0 0 0 0 0 0 0 0 0 0 0 0 0 0 0 0 0 0 0 0 0 0 0 0 0 0 0 0 0 0 0 0
0 0 0 0 0 0 0 0 0 0 0 0 0 0 0 0 0 0 0 0 0 0 0 0 0 0 0 0 0 0 0 0 0 0 0 0 0 0 0 0 0 0 0 0
0 0 0 0 0 0 0 0 0 0 0 0 0 0 0 0 0 0 0 0 0 0 0 0 0 0 0 0 0 0 0 0 0 0 0 0 0 0 0 0 0 0 0 0
0 0 0 0 0 0 0 0 0 0 0 0 0 0 0 0 0 0 0 0 0 0 0 0 0 0 0 0 0 0 0 0 0 0 0 0 0 0 0 0 0 0 0 0
0 0 0 0 0 0 0 0 0 0 0 0 0 0 0 0 0 0 0 0 0 0 0 0 0 0 0 0 0 0 0 0 0 0 0 0 0 0 0 0 0 0 0 0
0 0 0 0 0 0 0 0 0 0 0 0 0 0 0 0 0 0 0 0 0 0 0 0 0 0 0 0 0 0 0 0 0 0 0 0 0 0 0 0 0 0 0 0
0 0 0 0 0 0 0 0 0 0 0 0 0 0 0 0 0 0 0 0 0 0 0 0 0 0 0 0 0 0 0 0 0 0 0 0 0 0 0 0 0 0 0 0
0 0 0 0 0 0 0 0 0 0 0 0 0 0 0 0 0 0 0 0 0 0 0 0 0 0 0 0 0 0 0 0 0 0 0 0 0 0 0 0 0 0 0 0
0 0 0 0 0 0 0 0 0 0 0 0 0 0 0 0 0 0 0 0 0 0 0 0 0 0 0 0 0 0 0 0 0 0 0 0 0 0 0 0 0 0 0 0
0 0 0 0 0 0 0 0 0 0 0 0 0 0 0 0 0 0 0 0 0 0 0 0 0 0 0 0 0 0 0 0 0 0 0 0 0 0 0 0 0 0 0 0
0 0 0 0 0 0 0 0 0 0 0 0 0 0 0 0 0 0 0 0 0 0 0 0 0 0 0 0 0 0 0 0 0 0 0 0 0 0 0 0 0 0 0 0
0 0 0 0 0 0 0 0 0 0 0 0 0 0 0 0 0 0 0 0 0 0 0 0 0 0 0 0 0 0 0 0 0 0 0 0 0 0 0 0 0 0 0 0
0 0 0 0 0 0 0 0 0 0 0 0 0 0 0 0 0 0 0 0 0 0 0 0 0 0 0 0 0 0 0 0 0 0 0 0 0 0 0 0 0 0 0 0
Wind_Speed_500mb
37 39 40 38 35 34 28 20 7 17 41 15 12 17 10 12 15 10 12 8 17 25 18 18 17 22 19 7 7 10 15 11 22 47 42 16 13 20 26 17 19 19 26 36
25 29 32 30 19 23 25 18 12 34 48 12 16 11 11 15 12 18 8 13 12 8 15 12 22 23 5 9 2 2 9 6 14 13 15 7 16 22 26 31 24 38 36 30
18 16 20 15 12 23 30 14 7 12 36 21 11 20 16 18 7 18 28 17 15 12 19 18 19 16 4 7 3 7 4 8 18 20 27 23 11 7 12 9 8 16 15 20
19 18 14 13 15 15 27 13 6 9 11 19 24 14 7 6 12 5 6 10 14 8 10 5 16 18 9 3 9 3 3 19 30 34 37 29 29 27 31 33 31 18 37 35
21 22 12 10 12 16 17 12 8 9 3 2 13 27 19 32 29 17 18 24 23 6 16 18 23 11 14 22 3 1 1 13 12 18 24 26 20 28 39 41 46 46 49 53
24 24 19 20 19 20 11 16 14 8 6 9 12 11 12 8 15 3 4 6 4 6 10 3 3 10 14 13 7 3 6 7 12 34 31 23 24 42 40 47 48 47 42 21
23 16 22 26 30 25 22 17 17 9 6 14 13 11 16 14 9 6 13 5 5 4 7 14 21 20 31 38 42 41 26 25 15 21 9 37 27 14 22 30 19 5 5 9
37 33 25 19 26 33 33 30 21 14 5 15 13 17 11 11 9 10 17 21 19 13 4 2 8 4 6 13 33 32 38 28 13 13 25 31 36 18 12 12 19 16 13 9
35 36 30 49 38 39 40 36 36 18 10 17 16 19 26 13 11 4 9 12 12 17 8 5 8 9 1 7 9 4 16 26 17 7 12 18 12 5 6 6 17 17 14 9
53 52 58 47 41 49 54 52 44 38 14 18 29 13 14 19 14 4 5 10 12 22 9 7 10 10 7 10 8 7 5 6 26 25 21 18 10 8 13 9 10 21 20 30
52 56 46 49 69 45 47 58 59 62 29 40 45 50 31 22 25 11 14 8 6 8 13 9 8 10 12 6 9 7 11 10 9 2 7 21 11 14 12 3 14 44 42 46
56 51 51 52 42 50 66 59 57 49 45 18 30 70 64 63 47 41 36 20 18 22 9 10 5 7 5 12 15 11 14 19 13 17 12 4 21 17 37 58 63 63 52 52
58 61 57 55 54 48 62 63 46 38 48 50 63 61 70 68 72 65 33 27 35 29 29 15 8 14 10 12 17 26 34 44 21 24 39 44 63 70 73 70 60 56 52 53
59 61 66 66 61 61 60 64 65 60 29 12 36 52 53 56 66 75 76 62 38 40 42 22 11 11 24 18 23 22 30 12 19 28 43 52 65 66 75 71 61 53 49 45
59 61 57 55 56 54 57 62 62 54 47 6 6 22 41 50 40 57 75 76 54 31 17 12 16 30 17 24 18 26 42 37 24 30 58 48 63 65 60 47 48 46 41 37
57 57 57 57 58 52 55 39 64 63 59 16 8 29 55 54 47 49 66 79 65 53 22 15 24 44 23 11 22 45 60 54 63 55 81 70 79 67 55 53 49 40 33 34
61 59 56 55 55 57 59 18 21 37 67 22 7 7 24 40 43 53 44 53 40 37 28 20 29 28 26 11 24 58 53 56 65 73 66 57 60 37 45 43 41 34 30 31
56 56 54 52 53 58 71 78 39 32 53 20 7 5 3 21 13 15 23 23 29 23 17 18 17 16 17 16 35 54 57 67 71 63 58 53 44 35 33 31 31 29 27 29
52 50 48 49 60 57 56 61 74 69 42 13 12 12 9 24 16 15 18 21 9 15 11 15 17 13 16 24 38 48 60 42 43 39 38 31 29 30 30 26 25 26 27 29
44 41 31 21 49 58 36 29 35 51 38 30 9 23 9 28 22 18 15 15 8 9 14 13 11 24 53 43 53 54 43 28 26 20 21 25 23 23 24 27 26 26 28 33
45 27 26 22 28 49 29 18 13 12 10 25 21 39 11 26 8 10 19 4 5 7 7 12 7 8 21 46 46 36 31 28 24 23 24 21 22 23 25 26 27 29 34 39
35 22 24 33 26 15 13 14 11 10 12 13 12 21 36 22 19 8 13 8 8 11 7 5 6 8 16 20 20 21 21 19 18 19 18 18 19 22 26 29 32 36 40 40
44 22 23 16 14 14 16 19 5 9 8 26 22 10 27 16 19 7 8 13 10 10 7 9 10 6 10 15 16 15 13 11 11 14 16 20 23 26 30 34 36 42 44 39
20 14 14 15 9 10 8 10 12 16 31 49 35 14 7 11 10 6 9 5 8 7 7 13 6 13 17 15 14 11 10 11 13 16 20 24 29 32 32 36 41 45 46 42
18 14 11 13 5 5 10 18 15 18 41 56 19 12 10 4 6 7 8 5 10 12 12 7 10 22 22 19 15 12 10 11 15 21 25 28 33 37 38 35 39 41 43 41
10 4 9 3 3 2 3 15 18 36 49 30 12 7 8 8 8 10 14 11 15 9 6 13 28 25 21 17 13 10 10 14 19 24 29 31 33 36 37 34 32 32 33 32
7 2 5 9 6 0 8 15 17 40 30 8 7 12 12 6 6 8 9 12 12 8 20 31 27 22 16 11 9 10 12 15 19 21 24 26 28 30 31 30 23 23 23 21
Wind_Direction_500mb
244 249 257 258 262 262 250 202 168 180 161 164 198 219 198 229 266 260 262 286 255 259 280 273 265 255 233 112 140 255 208 244 258 265 271 258 270 252 215 228 232 231 248 249
248 250 253 255 237 215 183 178 140 164 177 201 210 229 218 228 207 233 224 241 231 243 263 269 254 258 121 40 0 327 46 282 270 249 246 328 256 261 253 262 273 253 258 256
198 209 210 215 188 173 177 165 146 177 206 224 228 226 249 232 224 239 234 237 238 251 257 250 271 278 303 36 51 349 5 210 239 285 298 301 268 313 317 283 281 328 293 311
198 210 223 213 207 168 176 185 198 171 186 225 220 218 187 195 211 257 245 227 232 242 231 238 248 276 307 99 15 40 237 260 272 277 283 285 274 274 275 266 274 265 283 278
211 216 224 184 189 199 189 167 163 174 136 73 198 214 236 243 244 253 244 253 264 298 247 252 285 299 266 272 43 319 128 271 289 272 275 264 267 271 269 273 271 265 263 268
221 222 222 213 202 206 191 186 167 141 145 167 181 208 220 186 163 143 143 135 155 208 254 186 195 244 264 260 247 249 263 267 268 271 283 311 272 249 266 273 272 269 269 300
219 219 213 217 214 216 216 194 170 161 205 200 200 192 197 172 181 198 184 150 146 204 202 298 286 261 257 253 253 239 248 248 256 272 317 263 279 313 269 264 280 162 128 169
221 225 217 218 211 217 220 214 204 183 214 203 197 195 190 182 197 228 246 247 242 256 227 234 316 305 317 258 239 244 233 252 253 248 248 286 299 247 230 227 283 198 173 182
231 238 240 219 221 219 222 228 212 197 151 221 195 201 213 214 212 226 218 229 209 180 167 143 216 240 190 279 306 44 217 229 227 161 243 262 300 147 123 139 274 178 190 223
235 236 238 238 233 221 225 224 220 212 206 220 179 192 193 176 177 178 174 174 165 185 185 191 204 235 203 241 227 221 175 197 223 232 249 268 248 157 153 235 302 163 230 271
251 228 235 241 237 233 228 232 223 213 221 232 219 221 193 171 181 175 175 140 184 171 200 200 201 218 204 221 246 215 241 228 201 185 250 268 157 127 218 264 287 301 296 292
249 243 237 234 237 240 232 238 241 239 222 244 238 242 243 242 237 214 192 205 162 180 186 207 178 202 199 218 255 199 254 224 247 215 243 255 190 248 268 285 287 286 287 291
243 240 238 242 236 233 223 236 231 225 229 251 253 245 249 243 238 233 215 225 219 211 208 178 200 235 176 230 237 255 257 255 244 260 255 259 269 271 273 277 278 282 286 290
241 241 238 236 236 232 224 226 232 234 233 240 255 259 244 249 237 233 229 229 223 227 219 217 215 225 199 237 241 235 245 245 245 255 261 270 264 264 269 271 275 276 275 278
245 243 242 240 236 238 241 236 228 234 225 289 280 264 255 259 245 234 232 229 226 217 206 207 226 239 230 240 248 245 247 248 248 252 265 262 272 274 275 272 265 261 266 273
246 245 245 246 237 233 229 227 229 229 234 240 241 253 257 255 232 229 227 225 223 222 219 222 234 238 212 233 241 249 253 254 248 252 264 272 272 273 267 263 261 258 263 270
244 244 245 243 241 232 217 205 228 220 220 216 239 225 235 233 228 223 222 220 209 213 228 225 237 236 219 239 252 258 259 258 259 263 273 269 261 252 257 254 253 257 263 272
241 242 242 242 240 239 236 228 213 207 180 194 219 209 222 203 185 197 199 202 209 218 221 233 233 242 223 242 245 256 261 267 270 271 262 256 259 249 246 241 247 258 269 280
236 239 241 242 235 230 227 233 229 217 198 195 188 183 213 178 177 182 184 193 206 205 220 228 210 223 224 232 243 247 257 257 263 262 259 251 240 239 243 251 257 267 276 281
231 229 222 225 225 226 222 207 206 198 205 195 187 179 177 178 174 184 169 196 214 207 220 171 224 238 243 250 254 259 262 264 257 241 245 240 236 238 249 260 269 277 284 291
222 204 215 233 218 187 191 194 197 179 198 178 166 185 156 193 159 182 201 206 204 226 195 202 219 252 234 235 240 246 256 258 252 248 251 254 250 252 259 267 277 285 290 294
220 204 192 182 191 191 207 178 170 189 202 174 153 178 191 175 179 161 178 199 192 230 130 215 241 236 225 223 233 245 255 255 248 247 251 255 260 267 274 283 287 287 289 298
233 212 176 199 191 193 194 180 186 176 165 174 163 156 157 153 181 177 173 205 218 115 188 227 231 141 211 222 227 230 230 237 250 259 266 271 274 277 283 286 289 291 294 301
201 195 197 191 189 216 185 179 174 196 171 170 158 125 149 158 172 167 194 146 133 208 225 226 219 198 193 194 198 209 221 241 257 270 278 284 287 289 291 294 295 295 296 296
192 187 218 202 177 145 185 185 148 166 176 150 128 103 130 142 166 185 111 152 227 215 227 222 178 174 176 180 188 201 222 255 278 287 291 294 296 296 297 296 294 292 293 294
242 171 149 83 142 162 238 196 173 167 157 141 114 123 145 185 173 168 205 181 214 222 208 173 160 164 170 177 194 223 263 285 293 299 302 304 304 304 305 306 302 295 294 294
128 104 110 126 66 222 174 163 172 165 157 155 143 162 187 103 172 209 191 212 247 161 156 155 160 165 176 190 221 254 277 295 303 310 310 311 309 309 309 309 305 294 292 289
Wind_Speed_850mb
37 39 40 38 35 34 28 20 7 17 41 15 12 17 10 12 15 10 12 8 17 25 18 18 17 22 19 7 7 10 15 11 22 47 42 16 13 20 26 17 19 19 26 36
25 29 32 30 19 23 25 18 12 34 48 12 16 11 11 15 12 18 8 13 12 8 15 12 22 23 5 9 2 2 9 6 14 13 15 7 16 22 26 31 24 38 36 30
18 16 20 15 12 23 30 14 7 12 36 21 11 20 16 18 7 18 28 17 15 12 19 18 19 16 4 7 3 7 4 8 18 20 27 23 11 7 12 9 8 16 15 20
19 18 14 13 15 15 27 13 6 9 11 19 24 14 7 6 12 5 6 10 14 8 10 5 16 18 9 3 9 3 3 19 30 34 37 29 29 27 31 33 31 18 37 35
21 22 12 10 12 16 17 12 8 9 3 2 13 27 19 32 29 17 18 24 23 6 16 18 23 11 14 22 3 1 1 13 12 18 24 26 20 28 39 41 46 46 49 53
24 24 19 20 19 20 11 16 14 8 6 9 12 11 12 8 15 3 4 6 4 6 10 3 3 10 14 13 7 3 6 7 12 34 31 23 24 42 40 47 48 47 42 21
23 16 22 26 30 25 22 17 17 9 6 14 13 11 16 14 9 6 13 5 5 4 7 14 21 20 31 38 42 41 26 25 15 21 9 37 27 14 22 30 19 5 5 9
37 33 25 19 26 33 33 30 21 14 5 15 13 17 11 11 9 10 17 21 19 13 4 2 8 4 6 13 33 32 38 28 13 13 25 31 36 18 12 12 19 16 13 9
35 36 30 49 38 39 40 36 36 18 10 17 16 19 26 13 11 4 9 12 12 17 8 5 8 9 1 7 9 4 16 26 17 7 12 18 12 5 6 6 17 17 14 9
53 52 58 47 41 49 54 52 44 38 14 18 29 13 14 19 14 4 5 10 12 22 9 7 10 10 7 10 8 7 5 6 26 25 21 18 10 8 13 9 10 21 20 30
52 56 46 49 69 45 47 58 59 62 29 40 45 50 31 22 25 11 14 8 6 8 13 9 8 10 12 6 9 7 11 10 9 2 7 21 11 14 12 3 14 44 42 46
56 51 51 52 42 50 66 59 57 49 45 18 30 70 64 63 47 41 36 20 18 22 9 10 5 7 5 12 15 11 14 19 13 17 12 4 21 17 37 58 63 63 52 52
58 61 57 55 54 48 62 63 46 38 48 50 63 61 70 68 72 65 33 27 35 29 29 15 8 14 10 12 17 26 34 44 21 24 39 44 63 70 73 70 60 56 52 53
59 61 66 66 61 61 60 64 65 60 29 12 36 52 53 56 66 75 76 62 38 40 42 22 11 11 24 18 23 22 30 12 19 28 43 52 65 66 75 71 61 53 49 45
59 61 57 55 56 54 57 62 62 54 47 6 6 22 41 50 40 57 75 76 54 31 17 12 16 30 17 24 18 26 42 37 24 30 58 48 63 65 60 47 48 46 41 37
57 57 57 57 58 52 55 39 64 63 59 16 8 29 55 54 47 49 66 79 65 53 22 15 24 44 23 11 22 45 60 54 63 55 81 70 79 67 55 53 49 40 33 34
61 59 56 55 55 57 59 18 21 37 67 22 7 7 24 40 43 53 44 53 40 37 28 20 29 28 26 11 24 58 53 56 65 73 66 57 60 37 45 43 41 34 30 31
56 56 54 52 53 58 71 78 39 32 53 20 7 5 3 21 13 15 23 23 29 23 17 18 17 16 17 16 35 54 57 67 71 63 58 53 44 35 33 31 31 29 27 29
52 50 48 49 60 57 56 61 74 69 42 13 12 12 9 24 16 15 18 21 9 15 11 15 17 13 16 24 38 48 60 42 43 39 38 31 29 30 30 26 25 26 27 29
44 41 31 21 49 58 36 29 35 51 38 30 9 23 9 28 22 18 15 15 8 9 14 13 11 24 53 43 53 54 43 28 26 20 21 25 23 23 24 27 26 26 28 33
45 27 26 22 28 49 29 18 13 12 10 25 21 39 11 26 8 10 19 4 5 7 7 12 7 8 21 46 46 36 31 28 24 23 24 21 22 23 25 26 27 29 34 39
35 22 24 33 26 15 13 14 11 10 12 13 12 21 36 22 19 8 13 8 8 11 7 5 6 8 16 20 20 21 21 19 18 19 18 18 19 22 26 29 32 36 40 40
44 22 23 16 14 14 16 19 5 9 8 26 22 10 27 16 19 7 8 13 10 10 7 9 10 6 10 15 16 15 13 11 11 14 16 20 23 26 30 34 36 42 44 39
20 14 14 15 9 10 8 10 12 16 31 49 35 14 7 11 10 6 9 5 8 7 7 13 6 13 17 15 14 11 10 11 13 16 20 24 29 32 32 36 41 45 46 42
18 14 11 13 5 5 10 18 15 18 41 56 19 12 10 4 6 7 8 5 10 12 12 7 10 22 22 19 15 12 10 11 15 21 25 28 33 37 38 35 39 41 43 41
10 4 9 3 3 2 3 15 18 36 49 30 12 7 8 8 8 10 14 11 15 9 6 13 28 25 21 17 13 10 10 14 19 24 29 31 33 36 37 34 32 32 33 32
7 2 5 9 6 0 8 15 17 40 30 8 7 12 12 6 6 8 9 12 12 8 20 31 27 22 16 11 9 10 12 15 19 21 24 26 28 30 31 30 23 23 23 21
Wind_Direction_850mb
244 249 257 258 262 262 250 202 168 180 161 164 198 219 198 229 266 260 262 286 255 259 280 273 265 255 233 112 140 255 208 244 258 265 271 258 270 252 215 228 232 231 248 249
248 250 253 255 237 215 183 178 140 164 177 201 210 229 218 228 207 233 224 241 231 243 263 269 254 258 121 40 0 327 46 282 270 249 246 328 256 261 253 262 273 253 258 256
198 209 210 215 188 173 177 165 146 177 206 224 228 226 249 232 224 239 234 237 238 251 257 250 271 278 303 36 51 349 5 210 239 285 298 301 268 313 317 283 281 328 293 311
198 210 223 213 207 168 176 185 198 171 186 225 220 218 187 195 211 257 245 227 232 242 231 238 248 276 307 99 15 40 237 260 272 277 283 285 274 274 275 266 274 265 283 278
211 216 224 184 189 199 189 167 163 174 136 73 198 214 236 243 244 253 244 253 264 298 247 252 285 299 266 272 43 319 128 271 289 272 275 264 267 271 269 273 271 265 263 268
221 222 222 213 202 206 191 186 167 141 145 167 181 208 220 186 163 143 143 135 155 208 254 186 195 244 264 260 247 249 263 267 268 271 283 311 272 249 266 273 272 269 269 300
219 219 213 217 214 216 216 194 170 161 205 200 200 192 197 172 181 198 184 150 146 204 202 298 286 261 257 253 253 239 248 248 256 272 317 263 279 313 269 264 280 162 128 169
221 225 217 218 211 217 220 214 204 183 214 203 197 195 190 182 197 228 246 247 242 256 227 234 316 305 317 258 239 244 233 252 253 248 248 286 299 247 230 227 283 198 173 182
231 238 240 219 221 219 222 228 212 197 151 221 195 201 213 214 212 226 218 229 209 180 167 143 216 240 190 279 306 44 217 229 227 161 243 262 300 147 123 139 274 178 190 223
235 236 238 238 233 221 225 224 220 212 206 220 179 192 193 176 177 178 174 174 165 185 185 191 204 235 203 241 227 221 175 197 223 232 249 268 248 157 153 235 302 163 230 271
251 228 235 241 237 233 228 232 223 213 221 232 219 221 193 171 181 175 175 140 184 171 200 200 201 218 204 221 246 215 241 228 201 185 250 268 157 127 218 264 287 301 296 292
249 243 237 234 237 240 232 238 241 239 222 244 238 242 243 242 237 214 192 205 162 180 186 207 178 202 199 218 255 199 254 224 247 215 243 255 190 248 268 285 287 286 287 291
243 240 238 242 236 233 223 236 231 225 229 251 253 245 249 243 238 233 215 225 219 211 208 178 200 235 176 230 237 255 257 255 244 260 255 259 269 271 273 277 278 282 286 290
241 241 238 236 236 232 224 226 232 234 233 240 255 259 244 249 237 233 229 229 223 227 219 217 215 225 199 237 241 235 245 245 245 255 261 270 264 264 269 271 275 276 275 278
245 243 242 240 236 238 241 236 228 234 225 289 280 264 255 259 245 234 232 229 226 217 206 207 226 239 230 240 248 245 247 248 248 252 265 262 272 274 275 272 265 261 266 273
246 245 245 246 237 233 229 227 229 229 234 240 241 253 257 255 232 229 227 225 223 222 219 222 234 238 212 233 241 249 253 254 248 252 264 272 272 273 267 263 261 258 263 270
244 244 245 243 241 232 217 205 228 220 220 216 239 225 235 233 228 223 222 220 209 213 228 225 237 236 219 239 252 258 259 258 259 263 273 269 261 252 257 254 253 257 263 272
241 242 242 242 240 239 236 228 213 207 180 194 219 209 222 203 185 197 199 202 209 218 221 233 233 242 223 242 245 256 261 267 270 271 262 256 259 249 246 241 247 258 269 280
236 239 241 242 235 230 227 233 229 217 198 195 188 183 213 178 177 182 184 193 206 205 220 228 210 223 224 232 243 247 257 257 263 262 259 251 240 239 243 251 257 267 276 281
231 229 222 225 225 226 222 207 206 198 205 195 187 179 177 178 174 184 169 196 214 207 220 171 224 238 243 250 254 259 262 264 257 241 245 240 236 238 249 260 269 277 284 291
222 204 215 233 218 187 191 194 197 179 198 178 166 185 156 193 159 182 201 206 204 226 195 202 219 252 234 235 240 246 256 258 252 248 251 254 250 252 259 267 277 285 290 294
220 204 192 182 191 191 207 178 170 189 202 174 153 178 191 175 179 161 178 199 192 230 130 215 241 236 225 223 233 245 255 255 248 247 251 255 260 267 274 283 287 287 289 298
233 212 176 199 191 193 194 180 186 176 165 174 163 156 157 153 181 177 173 205 218 115 188 227 231 141 211 222 227 230 230 237 250 259 266 271 274 277 283 286 289 291 294 301
201 195 197 191 189 216 185 179 174 196 171 170 158 125 149 158 172 167 194 146 133 208 225 226 219 198 193 194 198 209 221 241 257 270 278 284 287 289 291 294 295 295 296 296
192 187 218 202 177 145 185 185 148 166 176 150 128 103 130 142 166 185 111 152 227 215 227 222 178 174 176 180 188 201 222 255 278 287 291 294 296 296 297 296 294 292 293 294
242 171 149 83 142 162 238 196 173 167 157 141 114 123 145 185 173 168 205 181 214 222 208 173 160 164 170 177 194 223 263 285 293 299 302 304 304 304 305 306 302 295 294 294
128 104 110 126 66 222 174 163 172 165 157 155 143 162 187 103 172 209 191 212 247 161 156 155 160 165 176 190 221 254 277 295 303 310 310 311 309 309 309 309 305 294 292 289